CAPE
0 0 0 0 0 0 0 0 0 0 0 0 0 0 0 0 0 0 0 0 0 0 0 0 0 0 0 17 51 0 0 0
0 0 0 0 0 0 0 0 0 0 0 0 0 0 0 0 0 0 0 0 0 0 0 0 0 0 0 112 13 0 0 0
0 0 0 0 0 0 0 0 0 0 0 0 0 0 0 0 0 0 0 0 0 0 0 0 0 0 0 0 0 0 0 0
0 0 0 0 0 0 0 0 0 0 0 0 0 0 0 0 0 0 0 0 0 0 0 0 0 0 0 0 0 0 0 0
6 3 0 0 0 0 0 3 0 0 0 0 0 0 0 0 0 0 0 0 0 0 0 0 0 0 0 0 0 0 0 0
19 20 3 0 0 0 0 0 3 0 0 0 0 0 0 0 0 0 0 0 0 0 0 0 0 0 0 0 0 0 0 0
31 29 0 0 0 0 0 0 0 0 0 0 0 1 0 0 0 0 0 0 0 0 0 0 0 0 0 0 0 0 0 0
50 29 0 0 0 0 0 0 0 0 0 0 0 0 0 0 0 0 0 0 0 0 0 0 0 0 0 0 0 0 0 0
51 8 0 0 0 0 0 0 0 0 0 0 0 0 0 0 0 0 0 0 0 0 0 0 0 0 0 0 0 0 0 0
26 7 2 0 0 0 0 0 0 0 0 0 0 0 0 0 0 0 0 0 0 0 0 0 0 0 0 0 0 0 0 0
34 27 45 14 0 0 0 0 0 0 0 0 0 0 0 0 0 0 0 0 0 2 9 1 8 5 1 0 0 0 2 0
2 3 2 0 0 0 0 0 0 0 0 0 0 0 0 0 0 0 0 0 0 0 0 1 0 0 4 10 5 0 0 1
0 0 0 0 0 0 0 0 0 0 0 0 0 0 0 0 0 0 0 0 0 0 0 0 0 0 7 0 0 0 0 1
0 0 0 0 0 0 0 0 0 0 0 0 0 0 0 0 0 0 0 0 0 0 0 0 0 0 19 23 32 4 0 0
0 0 0 0 0 0 0 0 0 0 0 0 0 0 0 0 0 0 0 0 0 0 0 0 0 0 0 4 26 14 5 0
0 0 0 0 0 0 0 0 0 0 0 0 0 0 0 0 0 0 0 0 0 0 0 0 0 0 0 0 0 1 20 11
0 0 0 0 0 0 0 0 0 0 0 0 0 0 0 0 0 0 0 0 0 0 0 0 0 0 0 0 0 0 0 2
0 0 0 0 0 0 0 0 0 0 0 0 0 0 0 0 0 0 0 0 0 0 0 0 0 0 0 0 0 3 3 1
0 0 0 0 0 0 0 0 0 0 0 0 0 0 0 0 0 0 0 0 0 0 0 0 0 0 0 0 0 0 0 2
0 0 0 0 0 0 0 0 0 0 0 0 0 0 0 0 0 0 0 0 0 0 0 0 0 0 0 1 0 1 1 0
CIN
0 0 0 0 0 0 0 0 0 0 0 0 0 0 0 0 0 0 0 0 0 0 0 0 0 0 0 -388 -317 0 0 0
0 0 0 0 0 0 0 0 0 0 0 0 0 0 0 0 0 0 0 0 0 0 0 0 0 0 0 -270 -365 0 0 0
0 0 0 0 0 0 0 0 0 0 0 0 0 0 0 0 0 0 0 0 0 0 0 0 0 0 0 -51 -157 0 0 0
-27 -9 0 0 0 0 0 0 0 0 0 0 0 0 0 0 0 0 0 0 0 0 0 0 0 0 0 0 0 0 0 0
-62 -88 0 0 0 0 0 -102 0 0 0 0 0 0 0 0 0 0 0 0 0 0 0 0 0 0 0 0 0 0 0 0
-63 -63 -28 0 0 0 0 0 -77 0 0 0 0 0 0 0 0 0 0 0 0 0 0 0 0 0 0 0 0 0 0 0
-96 -62 0 0 0 0 0 0 0 0 0 0 0 -118 -21 0 0 0 0 0 0 0 0 0 0 0 0 0 0 0 0 0
-97 -46 0 0 0 0 0 0 0 0 0 0 0 0 0 0 0 0 0 0 0 0 0 0 0 0 0 0 0 0 0 0
-136 -31 0 0 0 0 0 0 0 0 0 0 0 0 0 0 0 0 0 0 0 0 0 0 0 0 0 0 0 0 0 0
-35 -35 -14 -3 0 0 0 0 0 0 0 0 0 0 0 0 0 0 0 0 0 0 0 0 0 0 0 0 0 0 0 0
-62 -70 -61 -75 0 0 0 0 0 0 0 0 0 0 0 0 0 0 0 0 0 -35 -100 -79 -81 -82 -33 0 0 0 -38 0
-22 -24 -28 0 0 0 0 0 0 0 0 0 0 0 0 0 0 0 0 0 0 0 0 -24 0 0 -58 -49 -46 -13 0 -68
0 0 0 0 0 0 0 0 0 0 0 0 0 0 0 0 0 0 0 0 0 0 0 0 0 0 -26 0 0 0 0 -57
0 0 0 0 0 0 0 0 0 0 0 0 0 0 0 0 0 0 0 0 0 0 0 0 0 0 -1 -8 -3 -23 0 0
0 0 0 0 0 0 0 0 0 0 0 0 0 0 0 0 0 0 0 0 0 0 0 0 0 0 0 -3 -1 -3 -7 0
0 0 0 0 0 0 0 0 0 0 0 0 0 0 0 0 0 0 0 0 0 0 0 0 0 0 0 0 0 -1 -1 -3
0 0 0 0 0 0 0 0 0 0 0 0 0 0 0 0 0 0 0 0 0 0 0 0 0 0 0 0 0 0 0 0
0 0 0 0 0 0 0 0 0 0 0 0 0 0 0 0 0 0 0 0 0 0 0 0 0 0 0 0 0 0 0 0
0 0 0 0 0 0 0 0 0 0 0 0 0 0 0 0 0 0 0 0 0 0 0 0 0 0 0 0 0 0 0 0
0 0 0 0 0 0 0 0 0 0 0 0 0 0 0 0 0 0 0 0 0 0 0 0 0 0 0 -5 -1 0 0 -1
Wind_Speed
13 13 14 15 15 15 16 16 17 18 18 19 20 20 21 22 22 22 22 22 21 20 19 19 18 17 18 14 10 9 10 11
12 13 13 14 15 15 16 17 17 18 19 20 20 20 21 22 22 22 23 23 22 21 20 18 17 17 16 12 11 10 10 11
11 12 13 14 14 16 16 17 18 18 19 19 19 19 21 21 22 23 23 23 23 21 20 18 18 17 15 13 12 12 12 13
9 11 12 13 15 16 17 17 17 17 17 17 18 19 20 22 23 23 23 23 23 22 20 19 18 18 17 16 15 14 15 15
8 11 13 14 14 16 16 15 16 16 16 16 18 18 20 22 23 22 22 22 22 21 20 19 18 18 17 17 16 15 17 17
11 10 13 14 15 15 16 16 16 15 14 16 14 16 19 21 23 23 22 21 23 20 20 21 20 19 18 19 19 19 20 20
9 10 12 14 15 16 17 17 17 17 17 16 15 15 16 20 23 24 23 24 24 22 19 22 24 24 19 19 22 22 21 21
10 11 12 13 15 17 17 18 18 17 17 17 16 16 17 17 19 22 25 24 25 25 25 26 27 26 27 23 24 24 24 22
10 11 11 14 16 17 19 20 20 21 21 22 21 18 16 16 17 21 23 25 25 23 24 24 27 29 30 28 28 27 26 26
9 11 13 15 17 19 21 22 22 23 24 24 26 25 23 20 22 24 27 27 28 27 25 25 23 28 31 32 30 28 29 29
11 12 14 17 19 20 21 22 23 24 24 25 26 26 27 24 24 27 29 28 27 28 27 26 28 26 28 33 34 32 31 32
14 15 16 18 19 19 20 22 23 25 26 27 27 27 27 27 27 28 29 28 28 30 29 27 28 30 30 31 29 31 32 33
16 17 19 18 19 20 22 23 24 26 27 28 28 29 29 30 30 30 30 30 30 30 30 30 30 28 31 32 34 33 30 31
16 18 20 21 22 23 23 23 24 25 26 27 28 30 30 31 31 31 30 30 31 30 30 30 28 27 29 30 36 36 35 33
17 19 21 23 24 24 25 24 24 26 26 27 28 29 30 31 31 31 31 30 31 31 31 31 31 30 29 30 34 38 35 32
19 21 23 24 25 26 26 27 27 25 25 26 27 27 28 29 29 30 30 30 31 30 30 31 31 35 35 29 33 34 38 41
19 22 23 25 25 26 27 28 26 25 26 27 28 28 30 31 31 30 30 30 29 30 31 31 31 33 34 36 37 37 36 40
20 22 24 25 26 28 29 28 27 27 27 28 28 29 30 32 32 32 31 32 32 32 31 30 30 32 33 34 36 38 39 39
18 21 24 25 28 28 29 28 26 27 28 29 31 33 32 33 33 33 33 33 33 33 32 31 31 32 33 34 34 36 36 39
16 20 25 27 29 29 28 25 28 28 29 30 32 32 33 32 33 34 33 33 33 32 31 31 31 32 33 32 34 35 35 37
Wind_Direction
35 28 21 17 16 13 8 5 3 359 356 352 348 346 344 341 338 333 331 328 325 324 322 320 317 314 310 313 315 326 327 336
32 24 18 16 13 11 8 4 2 358 355 350 348 345 342 338 335 333 331 327 324 324 322 319 316 314 314 315 311 314 319 322
30 27 21 15 10 8 5 1 358 356 355 353 351 349 343 338 332 329 325 322 322 324 322 322 318 312 309 307 304 304 306 308
32 21 15 10 2 358 357 359 359 358 358 354 351 347 342 336 331 326 320 319 321 323 322 320 321 313 303 300 295 293 296 299
20 12 7 3 1 1 360 2 3 2 360 356 351 349 344 337 331 327 322 321 322 323 321 319 318 312 305 300 296 291 290 291
6 18 11 7 5 4 3 2 2 5 3 356 351 347 343 338 334 328 324 324 319 322 321 312 310 306 308 298 293 289 288 288
23 22 18 15 14 12 8 10 7 6 5 3 360 350 344 339 328 325 324 320 316 318 321 307 302 299 305 302 292 290 289 286
28 20 19 19 14 13 15 13 12 13 10 5 2 356 349 344 335 325 320 318 314 314 313 305 297 297 294 297 293 290 287 286
23 28 29 14 9 9 9 9 9 5 359 353 350 349 349 344 338 327 321 317 313 314 312 310 299 295 292 291 290 288 286 284
34 22 11 9 5 5 4 3 4 1 357 354 348 345 344 342 333 326 319 315 310 308 306 305 306 296 292 290 289 287 285 283
13 8 0 358 359 2 4 7 4 0 358 355 351 349 347 346 340 332 324 318 313 310 302 300 300 300 295 289 287 286 284 283
360 354 353 355 358 5 4 3 358 354 352 349 347 346 344 342 339 335 330 326 320 313 307 302 300 298 297 288 290 288 285 282
1 357 357 2 359 355 353 351 349 346 347 346 343 341 339 336 334 330 328 325 322 318 313 308 304 301 297 290 287 287 282 282
8 6 2 359 355 353 351 349 348 347 348 348 346 341 339 337 334 331 329 326 321 318 316 312 309 307 301 297 290 287 284 280
1 359 357 356 355 354 352 349 346 344 346 346 347 347 344 340 338 335 332 329 323 320 316 311 306 304 303 297 294 289 290 288
353 355 354 355 355 354 352 348 345 346 346 347 347 348 348 346 342 340 336 333 328 324 320 315 309 302 300 299 294 294 289 285
353 351 355 356 356 355 352 347 347 348 347 346 347 347 346 344 343 341 338 335 331 326 321 316 312 306 302 298 294 292 290 286
353 354 356 357 355 352 351 349 350 349 348 346 347 346 344 344 343 340 338 334 330 325 321 317 314 310 305 300 295 291 289 287
2 358 354 354 351 351 352 353 355 352 349 346 344 341 341 340 341 339 336 333 330 326 321 317 313 310 307 302 299 294 292 287
11 1 353 351 350 350 351 356 353 351 349 345 343 342 341 342 340 338 335 332 331 328 324 319 315 311 308 305 301 298 294 288